GFSNW_con_mucape_105.txt.gz
CAPE
0 0 0 0 0 0 0 0 0 0 0 0 0 0 0 9 0 0 0 0 0 0 82 15 69 41 15 0 1 0 0 0 0 10 15 0 0 0 3 0 0 16 4 370
0 0 0 0 0 0 0 0 0 0 0 0 0 12 3 0 0 0 0 0 0 0 93 90 114 42 7 3 0 0 0 0 16 1 3 6 0 0 0 0 0 0 8 222
0 0 0 0 0 0 0 0 2 0 0 0 0 8 24 28 0 0 0 0 0 0 101 95 114 20 0 1 0 64 1 1 43 21 28 15 13 0 0 0 0 0 0 368
0 0 0 0 0 0 0 0 0 4 17 0 0 0 0 0 0 0 0 0 0 27 70 150 67 0 2 3 10 0 0 1 35 44 45 14 4 3 14 0 0 0 490 496
0 0 0 0 0 0 0 0 0 0 17 32 0 0 0 0 0 0 0 0 0 10 178 184 30 28 30 23 27 88 14 20 241 115 109 105 57 81 89 41 0 792 1094 782
0 0 0 0 0 0 0 0 0 17 56 59 0 0 4 0 0 0 0 0 0 32 115 61 37 19 34 211 140 77 115 150 113 178 155 121 193 32 94 212 257 304 695 522
0 0 0 0 0 0 0 0 0 21 74 89 158 43 2 0 0 0 0 0 0 16 12 3 6 0 19 32 3 0 119 170 80 94 150 237 63 51 93 236 384 479 257 74
0 0 0 0 0 0 0 0 0 11 77 208 265 73 0 0 0 0 0 0 0 0 0 1 137 96 97 79 112 10 107 176 188 61 36 64 106 36 23 36 70 271 525 513
0 0 0 0 0 0 0 0 0 3 59 189 225 124 0 0 0 0 0 0 0 0 0 6 316 64 8 20 96 147 393 421 239 34 43 24 34 64 17 5 74 138 238 278
0 0 0 0 0 0 0 0 1 2 22 63 128 100 7 0 0 22 2 0 0 0 0 22 244 49 0 0 12 220 146 64 153 134 100 23 29 19 27 104 111 41 249 117
0 0 0 0 0 0 0 0 0 3 76 63 186 25 7 0 0 14 0 0 0 0 6 0 229 20 0 0 47 512 293 26 119 30 26 0 35 4 8 76 88 112 497 235
0 0 0 0 0 0 0 0 0 9 84 14 16 9 0 0 0 0 33 179 196 68 18 131 284 104 23 88 251 36 319 261 307 69 1 1 57 198 274 135 17 73 57 399
0 0 0 0 0 0 0 0 2 5 46 0 0 5 1 0 0 0 0 6 63 136 1 129 166 28 63 138 26 253 338 262 275 233 148 236 273 74 70 59 13 0 7 36
0 0 0 0 0 0 0 0 0 0 0 49 0 0 0 0 0 0 0 0 34 3 0 4 0 31 13 34 164 80 241 98 4 438 272 68 49 18 0 1 0 0 0 0
0 0 0 0 0 0 0 0 0 0 0 59 53 53 118 0 0 0 0 0 0 34 0 0 0 246 145 50 0 6 26 84 0 212 331 126 48 31 12 0 0 0 0 0
0 0 0 0 0 0 0 0 0 0 0 86 201 184 43 0 0 0 0 0 0 0 0 0 163 110 45 0 136 21 35 66 16 383 168 74 122 137 8 0 0 0 0 0
0 0 0 0 0 0 0 0 3 0 0 153 204 242 124 2 0 0 0 0 17 6 4 33 76 43 10 0 43 168 160 172 89 180 131 46 62 35 16 16 1 0 5 0
0 0 0 0 0 0 0 3 5 0 67 110 60 113 91 19 7 0 0 0 0 122 47 130 189 148 227 72 100 291 343 137 77 49 79 162 49 44 12 8 5 0 0 2
0 0 0 0 0 0 0 0 7 25 134 124 32 40 296 90 52 8 23 68 69 57 12 8 219 138 418 438 365 585 425 258 209 163 137 68 113 186 28 8 0 0 9 9
3 8 1 0 0 5 8 118 265 143 36 192 178 109 397 311 230 69 167 72 128 179 221 477 225 615 806 557 431 644 764 366 214 196 137 91 135 100 47 22 2 0 3 7
9 7 92 219 2 132 155 97 166 98 1 0 7 131 191 219 206 188 174 300 235 296 430 380 546 348 339 610 970 683 662 467 232 332 122 345 82 31 44 22 16 20 23 12
12 5 36 201 194 142 77 124 66 129 0 0 0 5 291 281 218 377 186 215 403 205 299 402 413 586 1182 826 741 857 840 461 357 215 144 121 33 6 13 7 15 42 5 0
0 27 45 135 121 31 44 38 79 48 155 32 0 12 126 234 249 201 180 112 69 21 447 263 87 1366 1131 821 573 479 462 448 307 359 281 41 23 3 7 10 11 1 13 5
0 2 1 0 0 29 81 117 159 128 284 112 102 93 478 179 93 162 122 191 39 154 124 182 478 1194 864 708 514 379 325 285 287 98 65 71 11 5 11 28 15 10 0 0
1 0 0 0 16 48 120 335 117 192 150 230 137 157 520 174 319 181 61 61 54 62 54 87 1105 1056 800 631 474 383 257 200 40 25 11 29 16 17 17 15 6 2 0 0
0 0 0 0 19 73 94 150 91 256 364 188 251 251 166 58 98 55 77 9 8 43 1058 1278 1035 835 718 668 441 236 161 1 0 0 0 9 9 8 6 2 0 0 0 0
0 0 0 0 3 14 14 91 162 322 327 194 334 120 62 39 10 7 6 1 28 952 1283 1200 1124 1015 945 800 629 97 2 0 0 0 0 2 7 4 4 1 0 0 0 0

GFSNW_con_mucape_111.txt.gz
CAPE
0 0 0 0 0 0 0 0 0 0 0 0 0 0 0 0 0 0 0 0 0 0 0 0 0 21 44 3 21 26 35 32 31 21 36 9 123 49 71 22 0 13 25 5
0 0 0 0 0 0 0 0 0 0 0 0 0 0 0 0 0 0 0 0 0 0 0 0 0 0 20 9 0 19 23 26 14 53 76 115 50 39 0 0 0 0 3 3
0 0 0 0 0 0 0 0 0 0 0 0 0 0 0 0 0 0 0 0 0 0 0 0 0 2 7 2 6 669 7 44 16 36 68 111 72 104 11 0 0 0 0 0
0 0 0 0 0 0 0 0 0 0 0 0 0 0 0 0 0 0 0 0 0 0 0 0 0 0 1 28 23 2 1 39 34 21 90 97 133 168 84 17 3 0 0 0
0 0 0 0 0 0 0 0 0 0 0 0 0 0 0 0 0 0 0 0 0 0 0 0 0 0 20 39 34 43 11 23 62 77 43 35 71 123 136 86 157 210 346 269
0 0 0 0 0 0 0 0 0 0 0 0 0 11 3 0 0 0 0 0 3 0 0 0 0 0 12 44 91 102 217 93 3 104 21 12 0 14 74 179 369 254 369 169
0 0 0 0 0 0 0 0 0 0 0 2 14 15 12 0 0 0 0 0 0 0 0 0 0 0 2 16 107 53 130 45 39 35 32 0 1 3 64 113 225 322 392 827
0 0 0 0 0 0 0 0 0 0 0 1 3 20 0 0 0 0 0 0 0 0 0 0 0 41 8 1 241 94 13 23 2 1 2 18 27 0 2 25 55 205 343 338
0 0 0 0 0 0 0 0 0 0 0 8 13 13 20 0 0 0 0 0 0 0 0 0 0 0 0 0 126 127 103 48 4 9 0 5 0 10 26 38 50 203 446 650
0 0 0 0 0 0 0 0 0 0 0 1 30 33 5 4 2 0 0 0 0 0 0 0 0 0 0 0 0 13 5 2 0 1 0 0 0 23 45 35 42 240 457 504
0 0 0 0 0 0 0 0 0 0 0 0 13 0 0 0 0 0 0 0 0 0 0 0 1 0 0 0 0 13 21 1 2 0 0 0 0 0 0 30 225 202 365 383
0 0 0 0 0 0 0 0 0 0 0 0 0 3 0 4 0 0 0 0 0 0 0 0 2 3 0 0 6 8 100 34 1 3 0 35 39 42 155 295 233 179 186 211
0 0 0 0 0 0 0 0 0 0 0 0 0 12 0 2 23 2 0 8 0 6 0 0 1 0 0 0 0 0 45 79 153 10 17 153 118 67 187 358 227 452 236 36
0 0 0 0 0 0 0 0 0 0 0 0 0 0 0 0 5 12 0 4 5 0 0 0 0 0 0 0 0 77 138 113 93 43 109 59 99 80 70 126 265 380 404 384
0 0 0 0 0 0 0 0 0 0 0 0 0 0 14 3 1 0 1 3 5 9 0 0 0 0 0 0 0 2 4 20 67 26 135 50 7 0 0 4 87 238 391 614
0 0 0 0 0 0 0 0 0 0 0 0 3 0 9 30 1 0 0 0 1 9 0 0 0 0 0 0 0 0 0 1 19 56 167 28 0 0 0 0 0 0 144 446
0 0 0 0 0 0 0 0 0 0 0 0 1 20 99 66 6 6 1 0 0 0 0 0 0 0 0 0 0 0 0 1 5 83 133 47 37 5 0 0 0 0 20 455
0 0 0 0 0 0 0 0 3 0 0 1 11 3 60 14 8 9 0 0 0 0 0 0 0 0 0 0 0 0 1 39 42 55 64 48 27 16 5 0 0 0 59 194
0 0 0 0 0 0 0 0 5 3 0 0 0 0 85 82 14 18 11 27 0 0 0 0 0 0 0 0 0 71 24 42 26 23 25 23 20 22 16 4 0 2 84 109
0 0 0 0 0 0 0 17 3 0 3 0 0 30 50 66 58 68 62 58 5 0 0 0 0 0 2 0 1 52 4 2 11 28 36 38 38 38 39 19 0 0 0 0
0 0 0 13 1 0 11 3 0 4 0 0 0 2 29 52 81 61 48 17 4 0 0 0 0 0 0 7 0 50 31 32 62 18 25 48 28 28 17 3 2 6 8 1
4 20 27 15 46 20 2 0 3 16 0 0 0 0 0 70 119 20 14 48 77 9 0 7 0 25 25 26 11 106 65 122 136 144 129 50 8 6 12 20 29 24 23 11
14 32 31 12 0 0 0 0 0 1 39 5 7 94 39 80 87 53 29 0 1 1 0 0 0 0 67 121 58 154 222 244 191 121 65 32 2 10 22 25 28 32 18 15
6 13 0 0 0 0 0 0 15 46 55 101 21 58 111 43 55 44 61 42 13 0 0 0 35 27 27 30 117 144 161 185 177 147 99 30 9 9 8 8 12 10 13 16
21 2 0 0 0 0 0 9 33 69 98 106 28 67 44 45 38 34 47 42 6 0 0 0 2 0 2 93 246 337 214 205 218 161 40 32 23 10 0 0 0 2 3 5
11 0 0 0 0 0 2 35 64 74 118 55 12 27 7 28 49 34 0 18 2 0 16 15 0 0 65 203 319 335 327 288 231 226 234 54 5 0 0 0 0 2 1 1
0 0 0 0 5 7 19 30 31 23 29 24 48 1 0 0 2 31 39 11 0 30 181 387 371 57 211 315 336 304 178 182 200 174 40 6 7 7 0 0 0 0 1 3

GFSNW_con_mucape_114.txt.gz
CAPE
0 0 0 0 0 0 0 0 0 0 0 0 0 0 0 0 0 0 0 0 0 0 0 0 0 0 1 0 0 9 16 17 51 36 26 34 354 386 287 184 1 42 49 3
0 0 0 0 0 0 0 0 0 0 0 0 0 0 0 0 0 0 0 0 0 0 0 0 0 0 0 0 0 0 2 14 49 45 19 97 105 225 89 2 0 1 2 2
0 0 0 0 0 0 0 0 0 0 0 0 0 0 0 0 0 0 0 0 0 0 0 0 0 0 0 0 0 370 0 8 9 16 52 122 157 298 139 0 0 0 0 0
0 0 0 0 0 0 0 0 0 0 0 0 0 0 0 0 0 0 0 0 0 0 0 0 0 0 0 5 13 0 11 4 16 39 206 159 137 247 241 3 24 0 9 171
0 0 0 0 0 0 0 0 0 0 0 0 0 0 0 0 0 0 0 0 0 0 0 0 0 0 0 12 30 41 99 40 165 122 77 105 12 106 204 338 305 110 263 413
0 0 0 0 0 0 0 0 0 0 0 0 0 0 0 2 2 0 0 0 0 0 0 0 0 0 0 3 36 68 176 305 106 3 41 29 8 7 138 199 246 728 342 335
0 0 0 0 0 0 0 0 0 0 0 0 0 0 0 0 0 0 0 0 0 0 0 0 0 0 0 4 76 83 175 203 130 49 16 4 0 1 3 63 118 501 446 854
0 0 0 0 0 0 0 0 0 0 0 0 0 0 0 0 0 0 0 0 0 0 0 0 0 0 0 13 98 89 55 155 64 7 16 1 104 55 1 10 90 382 584 642
0 0 0 0 0 0 0 0 0 0 0 0 0 1 4 0 0 0 0 0 0 0 0 0 0 0 0 0 84 74 92 75 33 3 0 0 35 0 0 9 88 407 416 798
0 0 0 0 0 0 0 0 0 0 0 0 0 5 15 0 0 0 0 0 0 0 0 0 0 0 0 0 0 1 29 7 3 1 0 0 0 50 8 12 54 512 691 853
0 0 0 0 0 0 0 0 0 0 0 0 0 0 14 1 0 0 0 0 0 0 0 0 0 0 0 0 0 4 0 0 0 0 0 0 0 11 45 64 240 598 697 719
0 0 0 0 0 0 0 0 0 0 0 0 0 0 0 0 0 0 0 0 0 0 0 0 0 0 0 0 0 0 30 0 7 0 0 11 8 32 55 391 390 348 581 547
0 0 0 0 0 0 0 0 0 0 0 0 0 0 0 0 0 0 0 10 15 4 0 11 28 2 0 0 0 0 0 0 35 0 13 100 143 408 503 578 296 251 304 210
0 0 0 0 0 0 0 0 0 0 0 0 0 0 0 0 0 0 2 11 6 17 0 0 2 0 0 0 0 0 22 16 35 2 70 62 85 67 232 344 458 459 316 93
0 0 0 0 0 0 0 0 0 0 0 0 0 0 1 0 0 1 10 1 6 15 0 0 0 0 0 0 0 0 24 37 30 7 29 23 53 100 256 330 429 431 323 483
0 0 0 0 0 0 0 0 0 0 0 0 0 0 0 7 0 0 0 7 0 0 0 0 0 0 0 0 0 0 0 0 4 1 72 44 20 57 140 262 365 656 575 616
0 0 0 0 0 0 0 0 0 9 0 0 0 0 29 10 0 1 0 5 2 0 0 0 0 0 0 0 0 0 0 0 0 1 103 39 13 17 32 10 12 278 454 548
0 0 0 0 0 0 0 0 1 12 0 0 4 0 5 16 7 11 0 0 0 0 0 0 0 0 0 0 0 0 0 0 0 0 51 36 6 2 0 0 2 247 707 756
0 0 0 0 0 0 0 0 0 0 0 0 0 0 63 44 0 1 18 0 0 0 0 0 0 0 0 0 0 0 0 0 4 7 21 12 6 2 1 0 0 35 226 347
0 0 1 0 0 0 0 0 0 0 0 0 0 4 33 49 35 8 4 9 7 0 0 0 0 0 0 0 0 0 0 1 22 24 4 0 0 3 2 7 10 1 37 144
1 9 0 7 0 0 10 5 9 0 0 0 0 2 0 73 110 100 58 38 32 0 4 0 0 0 0 0 0 0 40 0 3 11 12 0 0 4 16 17 4 0 3 13
6 9 27 10 37 12 1 0 0 0 0 0 0 0 0 79 101 39 22 59 61 45 4 11 0 1 0 0 0 0 17 3 0 0 24 7 29 6 12 19 4 1 3 6
15 19 40 32 0 0 0 0 0 0 31 2 2 15 11 79 103 31 8 2 17 10 17 3 3 0 2 0 0 0 21 11 10 40 71 78 33 7 4 1 6 5 7 11
6 0 0 0 0 0 0 0 1 6 56 47 6 56 79 49 76 81 51 16 17 0 0 0 15 50 0 0 1 0 2 14 25 44 112 60 31 3 0 0 4 4 14 19
9 4 0 0 0 0 0 0 0 34 58 54 26 42 59 50 59 62 73 57 0 0 0 0 0 0 0 2 9 6 43 75 116 183 121 44 29 1 0 3 3 13 20 17
13 8 0 0 0 0 0 3 19 51 63 45 33 26 26 35 41 19 19 23 0 0 0 0 4 30 0 0 0 23 75 134 186 165 142 83 6 0 0 0 0 5 12 18
7 0 0 0 4 0 1 1 10 20 27 38 30 5 0 0 1 24 4 2 0 25 37 28 97 132 30 1 13 82 151 154 149 156 178 80 94 0 1 1 0 0 6 4

GFSNW_con_mucape_117.txt.gz
CAPE
0 0 0 0 0 0 0 0 0 0 0 0 0 0 0 0 0 0 0 0 0 0 0 0 0 0 0 0 0 0 0 0 7 7 0 7 291 446 435 423 171 410 352 40
0 0 0 0 0 0 0 0 0 0 0 0 0 0 0 0 0 0 0 0 0 0 0 0 0 0 0 0 0 0 0 0 0 39 37 70 116 355 267 234 251 319 157 2
0 0 0 0 0 0 0 0 0 0 0 0 0 0 0 0 0 0 0 0 0 0 0 0 0 0 0 0 0 69 0 0 0 23 92 129 426 396 507 131 32 134 47 16
0 0 0 0 0 0 0 0 0 0 0 0 0 0 0 0 0 0 0 0 0 0 0 0 0 0 0 0 0 0 0 4 0 20 181 228 201 286 572 383 392 0 12 374
1 0 0 0 0 0 0 0 0 0 0 0 0 0 0 0 0 0 0 0 0 0 0 0 0 0 0 0 0 12 34 99 159 271 263 131 258 74 495 714 756 735 577 682
0 4 5 0 0 0 0 0 0 0 0 0 0 0 0 0 0 0 0 0 0 0 0 0 0 0 0 0 12 60 212 379 337 218 202 125 85 72 54 530 673 713 782 745
0 5 7 3 0 0 0 0 0 0 0 0 0 0 0 0 0 0 0 0 0 0 0 0 0 0 0 0 6 0 192 355 449 352 277 65 57 116 194 280 350 687 847 643
0 0 15 10 1 0 0 0 0 0 0 0 0 0 0 0 5 0 0 0 0 0 0 0 0 0 0 0 0 0 2 266 319 336 273 66 217 164 110 101 189 462 840 766
0 0 0 8 4 0 0 0 0 0 0 0 0 0 0 3 2 1 0 0 0 0 0 0 0 0 0 0 13 5 1 2 276 114 126 38 156 98 47 23 217 328 1023 837
0 0 0 0 0 7 1 0 0 0 0 0 0 6 1 18 2 1 2 0 0 0 0 0 0 15 0 4 7 53 60 86 187 198 210 33 3 43 52 195 222 601 1095 824
0 0 0 0 0 0 0 0 0 0 0 0 0 0 0 22 18 3 0 0 0 0 5 5 15 6 22 0 0 20 155 286 362 5 165 16 0 3 242 103 384 808 1123 791
0 0 0 0 0 0 0 0 0 0 0 0 0 0 0 27 24 0 0 0 0 0 1 0 1 0 0 0 18 0 310 73 441 174 134 0 0 11 15 49 752 716 954 608
0 0 0 0 0 0 0 0 0 0 0 0 0 0 0 0 4 0 0 0 0 1 0 0 12 95 0 20 20 15 2 0 257 52 84 56 39 54 187 480 613 815 852 667
0 0 0 0 0 0 0 0 0 0 0 0 0 0 0 0 0 0 0 0 1 7 2 0 0 3 0 0 2 34 30 19 194 107 95 207 243 286 424 460 747 550 562 602
13 0 0 0 0 0 0 0 0 0 0 0 0 0 0 0 0 1 0 0 1 4 0 0 0 0 0 0 0 0 3 230 245 4 450 535 487 135 356 978 1080 676 503 543
11 0 0 0 0 0 0 0 0 0 0 0 0 0 0 5 4 0 0 0 0 14 2 0 0 0 0 0 0 3 0 2 84 155 119 53 186 186 161 697 956 760 675 709
7 0 0 0 0 0 0 0 0 0 0 0 0 0 0 8 5 0 0 1 0 0 0 0 0 0 0 0 24 13 0 0 0 0 16 5 59 293 163 294 680 537 804 1093
0 0 0 0 0 0 0 0 0 0 5 0 0 0 0 3 12 10 12 4 1 0 1 0 0 0 0 0 0 0 0 0 0 0 46 50 120 100 86 105 804 1034 978 1037
0 0 0 1 0 0 0 7 0 0 2 0 0 0 0 22 17 19 13 0 7 0 0 1 0 0 205 88 128 0 1 81 115 10 42 41 47 106 67 175 549 904 1012 977
2 0 0 0 0 0 0 2 1 0 0 0 32 15 71 110 27 13 9 0 3 0 0 0 0 6 33 62 32 94 46 36 2 1 0 0 16 65 62 123 275 548 743 614
7 0 5 0 3 0 0 43 0 8 0 0 25 22 5 50 266 156 89 22 22 53 30 14 17 3 8 157 118 76 0 0 37 151 76 4 52 44 78 92 157 284 440 362
6 9 33 16 89 13 0 63 0 0 0 0 0 10 6 48 193 252 131 178 133 116 4 65 95 7 105 74 130 203 0 0 0 11 40 13 42 25 70 97 110 95 187 70
17 9 22 37 9 0 0 0 0 0 25 5 0 17 23 124 209 180 169 115 138 19 74 125 42 110 122 162 13 88 22 0 12 0 2 0 20 12 30 67 40 2 1 7
5 5 18 1 0 0 0 0 9 3 17 56 13 76 71 58 162 224 84 57 65 47 21 12 112 448 549 220 42 45 16 1 9 9 0 13 51 56 0 17 0 0 2 5
5 0 0 0 0 0 0 0 2 81 97 45 96 93 89 119 114 110 93 109 80 7 5 25 152 266 42 11 6 14 55 85 70 38 13 29 58 60 1 0 0 2 5 0
8 0 0 3 0 0 0 4 47 127 156 97 153 134 161 139 119 106 122 103 83 96 93 111 46 271 197 1 0 55 148 122 87 27 36 41 118 33 10 0 0 0 5 11
0 0 2 0 0 0 0 0 25 111 177 240 197 80 65 23 71 91 106 81 120 342 77 331 238 249 329 149 7 17 97 94 29 48 100 189 102 47 21 0 0 0 3 4

GFSNW_con_mucape_123.txt.gz
CAPE
0 0 0 0 0 0 0 0 0 0 0 0 0 0 0 0 0 0 0 0 0 0 0 0 0 1 16 0 0 0 7 0 26 30 5 22 80 55 96 114 191 21 53 179
0 0 0 0 0 0 0 0 0 0 0 0 0 0 0 0 0 0 0 0 0 0 0 0 0 0 0 0 0 0 3 0 0 9 4 50 12 2 19 78 123 244 324 340
0 0 0 0 0 0 0 0 0 0 0 0 0 0 0 0 0 1 0 0 0 0 0 0 0 0 0 0 0 11 0 0 0 0 0 3 5 27 47 61 150 99 164 202
0 0 0 0 0 0 0 0 0 10 0 0 0 0 0 0 2 0 0 0 0 0 2 15 2 0 0 0 0 0 0 0 0 0 0 0 0 31 1 62 192 130 69 80
0 0 0 0 0 0 0 0 0 5 0 6 0 0 0 0 3 5 0 3 0 0 6 24 18 10 11 0 19 0 1 3 0 0 2 0 2 13 7 17 75 98 193 117
0 0 0 0 0 1 0 0 1 0 0 0 14 0 0 0 1 14 23 16 17 21 11 19 8 1 1 7 1 1 26 39 79 90 56 40 57 37 40 105 64 115 162 384
0 0 0 0 0 1 11 0 0 0 0 2 38 29 2 0 3 9 42 55 33 27 10 8 0 2 4 0 0 0 1 49 49 29 39 80 79 1 29 70 68 7 29 278
0 0 0 0 0 0 8 16 0 0 0 0 1 24 132 43 28 33 46 54 48 57 16 1 12 16 6 0 0 0 1 7 37 135 194 156 79 108 146 415 215 69 99 132
0 0 0 0 0 0 0 6 9 0 0 0 0 0 44 98 128 90 66 21 1 39 38 25 1 5 37 26 24 0 0 9 4 59 110 56 167 0 8 53 442 427 354 286
0 0 0 0 0 0 0 0 0 7 3 0 0 0 15 86 145 56 65 0 0 30 43 13 44 56 22 2 13 153 91 27 51 115 116 231 275 336 392 382 640 811 632 474
0 0 0 0 0 0 0 26 0 7 1 5 0 7 1 69 115 101 21 6 5 11 32 32 45 94 54 6 17 65 109 127 194 230 237 296 346 353 217 905 764 586 1813 1883
0 0 0 0 0 0 0 8 32 0 1 7 0 1 4 11 88 47 60 9 52 3 13 57 35 66 47 76 96 114 101 239 282 267 302 600 571 325 642 646 974 1340 1932 1774
0 0 0 0 0 0 0 15 11 3 0 0 0 1 1 0 0 13 36 44 143 39 222 64 92 46 94 123 105 214 160 200 51 266 440 366 460 566 455 851 1450 1934 1918 1628
2 1 0 0 0 0 0 1 1 13 0 5 36 4 0 2 8 0 23 2 5 53 138 119 85 49 67 98 179 119 152 211 93 81 26 311 591 842 1166 1471 1509 1600 1701 1272
7 1 0 0 0 0 0 68 17 4 0 1 2 0 0 4 5 1 6 0 0 82 117 73 103 74 149 55 81 63 247 81 73 106 112 957 878 1162 1413 1539 1351 1222 1230 1120
2 0 6 2 0 0 0 0 1 0 0 0 15 11 0 0 0 4 9 0 0 36 158 73 100 84 8 89 77 79 96 42 2 205 95 711 718 1059 1411 1391 1312 1063 1168 936
2 0 0 3 0 0 0 18 0 0 0 0 28 29 5 2 5 0 26 69 54 72 53 56 116 149 0 25 65 58 63 54 131 11 207 496 290 392 602 1100 1158 1174 1078 943
0 4 4 2 0 0 0 1 0 0 0 2 29 82 90 13 3 46 170 162 118 93 19 12 101 197 17 28 31 2 3 60 148 10 58 282 320 432 482 818 986 1249 1173 942
0 2 0 0 0 0 1 0 3 3 5 31 39 71 113 113 98 133 198 214 178 138 174 216 138 253 120 11 19 2 0 19 152 49 10 229 270 378 349 311 658 1201 1097 962
0 0 29 4 18 0 0 2 1 0 6 13 2 62 165 120 175 172 221 213 220 144 174 258 82 204 256 160 72 92 28 1 41 127 51 151 247 399 364 322 374 413 847 1100
0 4 12 4 0 18 89 115 89 108 49 34 16 26 51 58 258 190 161 307 232 203 242 230 212 231 348 162 129 178 109 24 90 213 132 127 232 400 405 246 302 567 622 1130
2 6 17 88 123 150 94 94 104 95 41 69 50 53 53 48 186 484 286 217 167 227 210 179 344 160 228 127 122 92 117 70 99 206 111 125 122 211 361 238 340 471 661 840
6 16 29 150 193 134 90 75 120 115 96 84 38 103 101 108 138 247 137 75 220 296 204 128 128 139 152 253 154 66 92 84 98 101 94 208 171 116 169 269 381 455 756 999
4 5 215 92 75 107 148 114 88 70 107 158 87 82 114 101 116 126 9 123 165 136 133 96 80 572 300 170 94 92 117 155 185 100 142 272 322 209 146 287 425 554 880 910
2 4 5 3 82 106 102 100 127 129 135 248 189 165 141 157 85 81 109 49 17 69 65 79 209 341 388 443 438 301 242 197 196 199 269 263 468 359 327 363 486 631 777 786
0 0 31 127 128 108 90 114 87 91 322 103 136 122 60 66 50 59 21 26 66 94 99 334 466 623 680 785 674 454 352 266 252 267 362 395 527 529 630 613 651 788 870 857
0 53 38 52 130 150 136 177 154 439 187 55 84 29 58 56 53 37 39 41 57 40 101 326 904 901 1148 966 932 966 614 507 457 674 1064 718 669 669 758 868 929 880 1058 1333